Terminal Aerodrome Forecast
Issued by NWS Blacksburg, VA

Current Version | Previous Version | Graphics & Text | Print | Product List | Glossary On
Versions: 1 2 3 4 5 6 7 8 9 10 11 12 13 14 15 16 17 18 19 20 21 22 23 24 25
000
FTUS41 KRNK 282336
TAFBLF
TAF
KBLF 282336Z 2900/2924 00000KT P6SM SCT080 OVC100
      TEMPO 2901/2905 -RA
     FM291100 VRB03KT 6SM -RA SCT040 OVC070
     FM291600 VRB03KT 6SM -RA SCT028 OVC035=

USA.gov is the U.S. government's official web portal to all federal, state and local government web resources and services.